Regional Weather Roundup
Issued by NWS Sioux Falls, SD

Home | Current Version | Previous Version | Graphics & Text | Print | Product List | Glossary On
Versions: 1 2 3 4 5 6 7 8 9 10 11 12 13 14 15 16 17 18 19 20 21 22 23 24 25 26 27 28 29 30 31 32 33 34 35 36 37 38 39 40 41 42 43 44 45 46 47 48 49 50
000
ASUS43 KFSD 231402
RWRFSD

WEATHER ROUNDUP FOR SE SOUTH DAKOTA/SW MINNESOTA/NW IOWA
NATIONAL WEATHER SERVICE SIOUX FALLS SD
900 AM CDT SAT AUG 23 2014

NOTE: "FAIR" INDICATES FEW OR NO CLOUDS BELOW 12,000 FEET WITH NO
SIGNIFICANT WEATHER AND OR OBSTRUCTIONS TO VISIBILITY.


SDZ038>040-050-052>070-231500-
SOUTHEAST SOUTH DAKOTA

CITY           SKY/WX    TMP DP  RH WIND       PRES   REMARKS
CHAMBERLAIN    CLOUDY    68  67  96 SE14G21   29.86S
HURON          CLOUDY    71  67  87 SE8       29.88R
MADISON        PTSUNNY   66  66 100 SE8       29.92R
MITCHELL       LGT RAIN  70  68  93 SE8       29.89R
SIOUX FALLS    CLOUDY    71  68  90 E10       29.91R
WINNER         CLOUDY    70  66  87 SE16      29.85F
YANKTON        PTSUNNY   70  68  94 SE7       29.90R
$$

MNZ071-072-080-081-089-090-097-098-231500-
SOUTHWEST MINNESOTA

CITY           SKY/WX    TMP DP  RH WIND       PRES   REMARKS
FAIRMONT       CLOUDY    57  57 100 E8        29.93F
JACKSON        CLOUDY    68  66  94 E12       29.93F
LUVERNE        CLOUDY    72  68  88 E7        29.90R
MARSHALL       CLOUDY    70  64  83 E8        29.91S
MONTEVIDEO     CLOUDY    68  68 100 E8        29.94F FOG
PIPESTONE      CLOUDY    70  66  88 E12G21    29.90F
REDWOOD FALLS  LGT RAIN  68  67  96 NE12      29.89F FOG
TRACY          CLOUDY    69  68  96 E3        29.92S FOG
WINDOM         CLOUDY    70  66  88 E9        29.91R
WORTHINGTON      N/A     72  12  10 E13       29.93R
$$

IAZ001>003-012>014-020>022-031-032-NEZ013-014-SDZ071-231500-
NORTHWEST IOWA

CITY           SKY/WX    TMP DP  RH WIND       PRES   REMARKS
CHEROKEE       CLOUDY    70  70  99 E5        29.91S
DENISON        CLOUDY    70  70 100 E9        29.90R
ESTHERVILLE    CLOUDY    69  68  96 E9        29.94S
LE MARS        CLOUDY    72  68  88 SE6       29.91R
ORANGE CITY    CLOUDY    72  68  88 E8        29.91R
SHELDON        CLOUDY    72  70  94 E12G17    29.90R
SIOUX CITY     CLOUDY    72  68  87 E6        29.90R
SPENCER        CLOUDY    70  68  93 E13       29.92R
STORM LAKE     CLOUDY    70  70 100 NE8       29.92S
$$

ABBREVIATIONS USED IN REMARKS
   TC - TEMPERATURE IN CELSIUS
  WCI - WIND CHILL INDEX
   HX - HEAT INDEX
  VSB - VISIBILITY




USA.gov is the U.S. government's official web portal to all federal, state and local government web resources and services.